• In Uzbekistan
  • List of Countries
  • For 7 days
  • Water Temperature
  • Satellite Maps
  • Weather Map
  • Weather Widgets
  • user-avatar
    Login

    Hourly Weather Nakhchivan

    Today, 16 January, Wednesday

    Time Temperature Precipitation Wind Pressure Humidity
    00:00 +3°C° 0 mm 2 mps 685 mmHg 68%
    01:00 +2°C° 0 mm 2 mps 685 mmHg 69%
    02:00 +2°C° 0 mm 2 mps 685 mmHg 70%
    03:00 +2°C° 0 mm 2 mps 685 mmHg 72%
    04:00 +2°C° 0 mm 2 mps 685 mmHg 72%
    05:00 +2°C° 0 mm 2 mps 685 mmHg 72%
    06:00 +2°C° 0 mm 2 mps 685 mmHg 71%
    07:00 +2°C° 0 mm 2 mps 685 mmHg 68%
    08:00 +3°C° 0 mm 2 mps 685 mmHg 64%
    09:00 +4°C° 0 mm 2 mps 685 mmHg 59%
    10:00 +5°C° 0 mm 2 mps 684 mmHg 56%
    11:00 +5°C° 0 mm 3 mps 684 mmHg 54%
    12:00 +7°C° 0 mm 3 mps 683 mmHg 51%
    13:00 +8°C° 0 mm 3 mps 683 mmHg 49%
    14:00 +8°C° 0 mm 3 mps 682 mmHg 47%
    15:00 +9°C° 0 mm 3 mps 682 mmHg 44%
    16:00 +7°C° 0 mm 3 mps 682 mmHg 47%
    17:00 +5°C° 0 mm 3 mps 682 mmHg 50%
    18:00 +5°C° 0 mm 2 mps 682 mmHg 53%
    19:00 +4°C° 0 mm 2 mps 681 mmHg 53%
    20:00 +4°C° 0 mm 2 mps 681 mmHg 53%
    21:00 +4°C° 0 mm 1 mps 680 mmHg 54%
    22:00 +4°C° 0 mm 1 mps 679 mmHg 53%
    23:00 +3°C° 0 mm 2 mps 679 mmHg 52%

    Tomorrow, 17 January, Thursday

    Time Temperature Precipitation Wind Pressure Humidity
    00:00 +2°C° 0 mm 2 mps 678 mmHg 52%
    01:00 +3°C° 0 mm 1 mps 678 mmHg 53%
    02:00 +3°C° 0 mm 1 mps 677 mmHg 54%
    03:00 +3°C° 0 mm 1 mps 677 mmHg 55%
    04:00 +3°C° 0 mm 1 mps 676 mmHg 56%
    05:00 +3°C° 0 mm 1 mps 676 mmHg 57%
    06:00 +3°C° 0 mm 1 mps 676 mmHg 58%
    07:00 +3°C° 0.1 mm 1 mps 676 mmHg 60%
    08:00 +3°C° 0.1 mm 2 mps 676 mmHg 61%
    09:00 +2°C° 0.1 mm 3 mps 677 mmHg 63%
    10:00 +2°C° 0 mm 3 mps 677 mmHg 64%
    11:00 +3°C° 0 mm 3 mps 676 mmHg 65%
    12:00 +3°C° 0 mm 3 mps 676 mmHg 66%
    13:00 +3°C° 0 mm 3 mps 677 mmHg 65%
    14:00 +3°C° 0 mm 3 mps 677 mmHg 64%
    15:00 +4°C° 0 mm 3 mps 677 mmHg 63%
    16:00 +3°C° 0.2 mm 3 mps 678 mmHg 66%
    17:00 +2°C° 0.2 mm 3 mps 679 mmHg 69%
    18:00 0°C° 0.2 mm 4 mps 680 mmHg 72%
    19:00 +1°C° 0.3 mm 3 mps 680 mmHg 73%
    20:00 +1°C° 0.3 mm 3 mps 681 mmHg 75%
    21:00 0°C° 0.3 mm 3 mps 681 mmHg 77%
    22:00 0°C° 0.1 mm 3 mps 682 mmHg 76%
    23:00 +1°C° 0.1 mm 2 mps 683 mmHg 75%

    Day after tomorrow, 18 January, Friday

    Time Temperature Precipitation Wind Pressure Humidity
    00:00 -1°C° 0.1 mm 2 mps 683 mmHg 74%
    01:00 -1°C° 0 mm 2 mps 684 mmHg 73%
    02:00 -2°C° 0 mm 2 mps 684 mmHg 72%
    03:00 -2°C° 0 mm 2 mps 685 mmHg 71%
    04:00 -2°C° 0 mm 2 mps 685 mmHg 70%
    05:00 -1°C° 0 mm 1 mps 686 mmHg 69%
    06:00 -1°C° 0 mm 1 mps 686 mmHg 69%
    07:00 0°C° 0 mm 1 mps 687 mmHg 64%
    08:00 0°C° 0 mm 1 mps 687 mmHg 60%
    09:00 0°C° 0 mm 1 mps 688 mmHg 56%
    10:00 +1°C° 0 mm 1 mps 688 mmHg 54%
    11:00 +1°C° 0 mm 1 mps 688 mmHg 51%
    12:00 +2°C° 0 mm 1 mps 688 mmHg 49%
    13:00 +2°C° 0 mm 1 mps 687 mmHg 48%
    14:00 +3°C° 0 mm 1 mps 687 mmHg 47%
    15:00 +3°C° 0 mm 1 mps 687 mmHg 46%
    16:00 +2°C° 0 mm 1 mps 688 mmHg 51%
    17:00 0°C° 0 mm 0 mps 688 mmHg 55%
    18:00 -1°C° 0 mm 0 mps 689 mmHg 60%
    19:00 -1°C° 0 mm 0 mps 689 mmHg 60%
    20:00 -1°C° 0 mm 0 mps 689 mmHg 61%
    21:00 -1°C° 0 mm 0 mps 690 mmHg 61%
    22:00 -1°C° 0 mm 0 mps 690 mmHg 61%
    23:00 -2°C° 0 mm 0 mps 690 mmHg 61%

    19 January, Saturday

    Time Temperature Precipitation Wind Pressure Humidity
    00:00 -1°C° 0 mm 1 mps 690 mmHg 61%
    01:00 -1°C° 0 mm 1 mps 690 mmHg 61%
    02:00 -1°C° 0 mm 1 mps 690 mmHg 61%
    03:00 -2°C° 0 mm 1 mps 690 mmHg 62%
    04:00 -2°C° 0 mm 1 mps 690 mmHg 62%
    05:00 -3°C° 0 mm 0 mps 690 mmHg 62%
    06:00 -3°C° 0 mm 0 mps 690 mmHg 62%
    07:00 -3°C° 0 mm 0 mps 690 mmHg 59%
    08:00 -2°C° 0 mm 0 mps 690 mmHg 55%
    09:00 -2°C° 0 mm 0 mps 691 mmHg 52%
    10:00 -1°C° 0 mm 0 mps 690 mmHg 50%
    11:00 -1°C° 0 mm 0 mps 690 mmHg 48%
    12:00 0°C° 0 mm 0 mps 689 mmHg 46%
    13:00 +1°C° 0 mm 0 mps 689 mmHg 44%
    14:00 +1°C° 0 mm 0 mps 689 mmHg 43%
    15:00 +2°C° 0 mm 0 mps 688 mmHg 41%
    16:00 0°C° 0 mm 0 mps 689 mmHg 46%
    17:00 -1°C° 0 mm 0 mps 689 mmHg 51%
    18:00 -2°C° 0 mm 0 mps 690 mmHg 56%
    19:00 -2°C° 0 mm 0 mps 690 mmHg 56%
    20:00 -2°C° 0 mm 0 mps 690 mmHg 55%
    21:00 -2°C° 0 mm 0 mps 691 mmHg 54%
    22:00 -2°C° 0 mm 0 mps 691 mmHg 53%
    23:00 -2°C° 0 mm 0 mps 691 mmHg 52%

    20 January, Sunday

    Time Temperature Precipitation Wind Pressure Humidity
    00:00 -2°C° 0 mm 0 mps 691 mmHg 51%
    01:00 -2°C° 0 mm 0 mps 691 mmHg 50%
    02:00 -3°C° 0 mm 0 mps 691 mmHg 49%
    03:00 -3°C° 0 mm 0 mps 690 mmHg 48%
    04:00 -3°C° 0 mm 0 mps 690 mmHg 47%
    05:00 -3°C° 0 mm 0 mps 690 mmHg 47%
    06:00 -3°C° 0 mm 0 mps 690 mmHg 46%
    07:00 -2°C° 0 mm 0 mps 691 mmHg 42%
    08:00 -1°C° 0 mm 0 mps 691 mmHg 39%
    09:00 0°C° 0 mm 0 mps 691 mmHg 35%
    10:00 0°C° 0 mm 0 mps 691 mmHg 34%
    11:00 +1°C° 0 mm 0 mps 690 mmHg 34%
    12:00 +2°C° 0 mm 0 mps 690 mmHg 33%
    13:00 +2°C° 0 mm 0 mps 690 mmHg 32%
    14:00 +2°C° 0 mm 0 mps 690 mmHg 31%
    15:00 +3°C° 0 mm 0 mps 689 mmHg 31%
    16:00 +2°C° 0 mm 0 mps 690 mmHg 35%
    17:00 0°C° 0 mm 0 mps 690 mmHg 40%
    18:00 -1°C° 0 mm 0 mps 690 mmHg 45%
    19:00 -1°C° 0 mm 0 mps 690 mmHg 45%
    20:00 -1°C° 0 mm 0 mps 691 mmHg 45%
    21:00 -1°C° 0 mm 0 mps 691 mmHg 44%
    22:00 -1°C° 0 mm 0 mps 691 mmHg 44%
    23:00 -1°C° 0 mm 0 mps 691 mmHg 44%

    21 January, Monday

    Time Temperature Precipitation Wind Pressure Humidity
    00:00 -1°C° 0 mm 1 mps 691 mmHg 43%
    01:00 -1°C° 0 mm 1 mps 691 mmHg 43%
    02:00 -1°C° 0 mm 1 mps 691 mmHg 43%
    03:00 -1°C° 0 mm 1 mps 691 mmHg 43%
    04:00 -1°C° 0 mm 1 mps 690 mmHg 43%
    05:00 -3°C° 0 mm 0 mps 690 mmHg 43%
    06:00 -3°C° 0 mm 0 mps 690 mmHg 43%
    07:00 -2°C° 0 mm 0 mps 690 mmHg 40%
    08:00 -1°C° 0 mm 0 mps 691 mmHg 37%
    09:00 0°C° 0 mm 0 mps 691 mmHg 34%
    10:00 +1°C° 0 mm 0 mps 690 mmHg 34%
    11:00 +1°C° 0 mm 0 mps 689 mmHg 34%
    12:00 +2°C° 0 mm 0 mps 689 mmHg 34%
    13:00 +2°C° 0 mm 0 mps 688 mmHg 34%
    14:00 +3°C° 0 mm 0 mps 688 mmHg 34%
    15:00 +3°C° 0 mm 0 mps 687 mmHg 34%
    16:00 +2°C° 0 mm 0 mps 688 mmHg 38%
    17:00 +1°C° 0 mm 0 mps 688 mmHg 42%
    18:00 -1°C° 0 mm 0 mps 688 mmHg 47%
    19:00 -1°C° 0 mm 0 mps 688 mmHg 46%
    20:00 0°C° 0 mm 1 mps 688 mmHg 45%
    21:00 0°C° 0 mm 1 mps 688 mmHg 44%
    22:00 0°C° 0 mm 1 mps 688 mmHg 44%
    23:00 0°C° 0 mm 1 mps 688 mmHg 43%
    Show more